Location: Poughquag
(41.6090°N, 73.6820°W)
Time: 00:35:26
(UTC-04:00)

POLYITAN 1 - Visible Passes

Search period start: 13 September 2024 00:00
Search period end: 23 September 2024 00:00
Orbit: 541 x 558 km, 98.1° (Epoch: 12 September)

Date Brightness Start Highest point End Pass type
(mag) Time Alt. Az. Time Alt. Az. Time Alt. Az.
13 Sep ? 04:09:04 10° NE 04:12:27 28° E 04:14:02 21° SE visible
13 Sep ? 05:43:57 10° NNW 05:46:59 22° WNW 05:49:45 11° WSW visible
14 Sep ? 04:04:38 10° NE 04:07:53 24° E 04:09:22 19° SE visible
14 Sep ? 05:39:15 10° NNW 05:42:27 24° WNW 05:45:03 13° WSW visible
15 Sep ? 04:00:09 10° NE 04:03:14 21° E 04:04:37 18° SE visible
15 Sep ? 05:34:31 10° N 05:37:52 27° WNW 05:40:18 15° WSW visible
16 Sep ? 03:55:39 10° NE 03:58:29 19° E 03:59:48 16° ESE visible
16 Sep ? 05:29:43 10° N 05:33:11 31° WNW 05:35:28 17° WSW visible
17 Sep ? 03:51:07 10° NE 03:53:40 17° E 03:54:53 15° ESE visible
17 Sep ? 05:24:51 10° N 05:28:26 35° WNW 05:30:34 20° SW visible
18 Sep ? 03:46:34 10° ENE 03:48:47 15° E 03:49:55 13° ESE visible
18 Sep ? 05:19:56 10° N 05:23:37 40° WNW 05:25:35 23° SW visible
19 Sep ? 03:42:03 10° ENE 03:43:49 13° E 03:44:52 12° ESE visible
19 Sep ? 05:14:57 10° N 05:18:42 46° WNW 05:20:32 26° SW visible
20 Sep ? 03:37:42 10° ENE 03:38:46 11° E 03:39:44 10° ESE visible
20 Sep ? 05:09:54 10° N 05:13:44 54° WNW 05:15:24 30° SW visible
21 Sep ? 05:04:47 10° N 05:08:40 63° WNW 05:10:11 34° SW visible
22 Sep ? 04:59:37 10° N 05:03:33 74° WNW 05:04:55 38° SSW visible
